Regional Weather Roundup
Issued by NWS Little Rock, AR

Home | Current Version | Previous Version | Text Only | Print | Product List | Glossary Off
Versions: 1 2 3 4 5 6 7 8 9 10 11 12 13 14 15 16 17 18 19 20 21 22 23 24 25 26 27 28 29 30 31 32 33 34 35 36 37 38 39 40 41 42 43 44 45 46 47 48 49 50

000
ASUS44 KLZK 251905
RWRLZK

WEATHER ROUNDUP FOR ARKANSAS
NATIONAL WEATHER SERVICE LITTLE ROCK AR
200 PM CDT WED APR 25 2018

NOTE: "FAIR" INDICATES FEW OR NO CLOUDS BELOW 12,000 FEET WITH NO
SIGNIFICANT WEATHER AND/OR OBSTRUCTIONS TO VISIBILITY.

ARZ001-003-010-029-252000-
NORTHWEST ARKANSAS

CITY           SKY/WX    TMP DP  RH WIND       PRES   REMARKS
FAYETTEVILLE   CLOUDY    54  51  90 NE5       30.07F
FORT SMITH     CLOUDY    56  54  93 SE8       30.06F
HARRISON       LGT RAIN  53  51  93 CALM      30.10F FOG
BENTONVILLE    LGT RAIN  54  51  90 SE7       30.09F
ROGERS         LGT RAIN  53  51  93 E8        30.08F
SILOAM SPGS    CLOUDY    55  52  89 SE6       30.07F
HIGHFILL       LGT RAIN  55  50  83 E6        30.07F
SPRINGDALE     LGT RAIN  52  52 100 E7        30.09F
$$

ARZ004-005-016-252000-
NORTH CENTRAL ARKANSAS

CITY           SKY/WX    TMP DP  RH WIND       PRES   REMARKS
BATESVILLE     LGT RAIN  56  50  80 NW6       30.09S
FLIPPIN        RAIN      55  53  93 VRB3      30.11F
MTN HOME       LGT RAIN  53  53 100 NW5       30.09F
$$

ARZ040-041-252000-
WEST CENTRAL ARKANSAS

CITY           SKY/WX    TMP DP  RH WIND       PRES   REMARKS
MENA           CLOUDY    55  55 100 CALM      30.09F
MOUNT IDA      LGT RAIN  55  54  96 CALM      30.07S FOG
$$

ARZ009-017-025-026-028-252000-
NORTHEAST ARKANSAS

CITY           SKY/WX    TMP DP  RH WIND       PRES   REMARKS
CORNING        FAIR      66  54  63 W14       30.02S
JONESBORO      LGT RAIN  63  48  58 N9G21     30.05S
NEWPORT        LGT RAIN  62  51  67 NW18      30.06R
WALNUT RIDGE   RAIN      58  51  78 W15G24    30.06R
BLYTHEVILLE    CLOUDY    68  51  54 W9        30.02F
NW BLYTHEVILLE CLOUDY    68  50  52 W5        30.03R
$$

ARZ022-023-033-042-044-252000-
CENTRAL ARKANSAS

CITY           SKY/WX    TMP DP  RH WIND       PRES   REMARKS
LITTLE ROCK    LGT RAIN  59  56  89 NW13      30.07S FOG
N LITTLE ROCK    N/A     56  54  92 NW9       30.04S
JACKSONVILLE   LGT RAIN  60  56  88 NW10      30.07R
CONWAY         MOCLDY    55  55 100 NW9       30.09F FOG
SEARCY         LGT RAIN  62  50  64 MISG      30.06S
HOT SPRINGS    LGT RAIN  57  56  96 VRB6      30.08S
RUSSELLVILLE   LGT RAIN  55  54  96 NW3       30.09F FOG
CLINTON        LGT RAIN  55  54  94 CALM      30.11S
$$

ARZ036-252000-
EAST ARKANSAS

CITY           SKY/WX    TMP DP  RH WIND       PRES   REMARKS
WEST MEMPHIS   FAIR      72  57  59 NW7       30.01S
$$

ARZ050-053-066-070-073-252000-
SOUTHWEST ARKANSAS

CITY           SKY/WX    TMP DP  RH WIND       PRES   REMARKS
ARKADELPHIA    LGT RAIN  64  60  87 N9        30.05S
CAMDEN         PTSUNNY   75  55  50 CALM      30.01F
TEXARKANA      CLOUDY    65  57  75 N6        30.04F
EL DORADO      CLOUDY    75  60  59 CALM      30.01F
DE QUEEN       CLOUDY    61  53  75 NE5       30.03F
$$

ARZ056-057-069-252000-
SOUTHEAST ARKANSAS

CITY           SKY/WX    TMP DP  RH WIND       PRES   REMARKS
PINE BLUFF     CLOUDY    74  46  36 CALM      30.02F
STUTTGART      CLOUDY    72  58  61 NW8       30.03F
MONTICELLO     CLOUDY    75  50  41 MISG      30.02F

$$






USA.gov is the U.S. government's official web portal to all federal, state and local government web resources and services.